Location: Berkeley
(37.8716°N, 122.2727°W)
Time: 14:18:29
(UTC-07:00)

N. Korean satellite - Visible Passes

Search period start: 20 March 2019 00:00
Search period end: 30 March 2019 00:00
Orbit: 455 x 510 km, 97.2° (Epoch: 19 March)

Date Brightness Start Highest point End Pass type
(mag) Time Alt. Az. Time Alt. Az. Time Alt. Az.
20 Mar 9.9 06:25:18 10° NE 06:27:29 15° E 06:29:40 10° SE visible
24 Mar 10.0 06:19:47 10° ENE 06:21:36 13° E 06:23:25 10° ESE visible
28 Mar 10.2 06:14:23 10° ENE 06:15:39 11° E 06:16:55 10° ESE visible
